• In India
  • List of Countries
  • For 7 days
  • Water Temperature
  • Satellite Maps
  • Weather Map
  • Weather Widgets
  • user-avatar
    Login

    Hourly Weather Carlosama

    Today, 11 December, Tuesday

    Time Temperature Precipitation Wind Pressure Humidity
    00:00 +7°C° 0 mm 2 mps 527 mmHg 84%
    01:00 +7°C° 0 mm 2 mps 527 mmHg 84%
    02:00 +7°C° 0 mm 2 mps 527 mmHg 83%
    03:00 +7°C° 0 mm 2 mps 527 mmHg 83%
    04:00 +7°C° 0 mm 2 mps 527 mmHg 82%
    05:00 +8°C° 0 mm 2 mps 527 mmHg 81%
    06:00 +8°C° 0 mm 2 mps 528 mmHg 81%
    07:00 +8°C° 0 mm 2 mps 528 mmHg 80%
    08:00 +9°C° 0.1 mm 2 mps 529 mmHg 77%
    09:00 +10°C° 0.1 mm 2 mps 530 mmHg 74%
    10:00 +12°C° 0.1 mm 2 mps 531 mmHg 71%
    11:00 +13°C° 0.3 mm 2 mps 530 mmHg 70%
    12:00 +14°C° 0.3 mm 2 mps 530 mmHg 68%
    13:00 +14°C° 0.3 mm 2 mps 530 mmHg 67%
    14:00 +14°C° 0.4 mm 2 mps 529 mmHg 69%
    15:00 +13°C° 0.4 mm 2 mps 529 mmHg 71%
    16:00 +13°C° 0.4 mm 1 mps 528 mmHg 73%
    17:00 +11°C° 0.1 mm 1 mps 528 mmHg 78%
    18:00 +10°C° 0.1 mm 1 mps 527 mmHg 83%
    19:00 +9°C° 0.1 mm 1 mps 527 mmHg 89%
    20:00 +9°C° 0.1 mm 1 mps 527 mmHg 88%
    21:00 +9°C° 0.1 mm 1 mps 527 mmHg 87%
    22:00 +7°C° 0.1 mm 2 mps 528 mmHg 86%
    23:00 +7°C° 0 mm 2 mps 528 mmHg 85%

    Tomorrow, 12 December, Wednesday

    Time Temperature Precipitation Wind Pressure Humidity
    00:00 +7°C° 0 mm 2 mps 527 mmHg 84%
    01:00 +7°C° 0 mm 2 mps 527 mmHg 84%
    02:00 +7°C° 0 mm 2 mps 527 mmHg 84%
    03:00 +7°C° 0 mm 2 mps 527 mmHg 84%
    04:00 +7°C° 0 mm 2 mps 527 mmHg 84%
    05:00 +8°C° 0.1 mm 2 mps 527 mmHg 82%
    06:00 +8°C° 0.1 mm 2 mps 528 mmHg 81%
    07:00 +9°C° 0.1 mm 2 mps 528 mmHg 80%
    08:00 +10°C° 0.1 mm 2 mps 529 mmHg 75%
    09:00 +12°C° 0.1 mm 2 mps 530 mmHg 70%
    10:00 +14°C° 0.1 mm 2 mps 531 mmHg 66%
    11:00 +14°C° 0.2 mm 2 mps 530 mmHg 66%
    12:00 +14°C° 0.2 mm 2 mps 530 mmHg 66%
    13:00 +14°C° 0.2 mm 2 mps 530 mmHg 66%
    14:00 +14°C° 0.3 mm 2 mps 529 mmHg 68%
    15:00 +14°C° 0.3 mm 2 mps 529 mmHg 70%
    16:00 +13°C° 0.3 mm 2 mps 528 mmHg 71%
    17:00 +12°C° 0.2 mm 1 mps 528 mmHg 76%
    18:00 +11°C° 0.2 mm 1 mps 527 mmHg 81%
    19:00 +10°C° 0.2 mm 1 mps 527 mmHg 86%
    20:00 +9°C° 0.1 mm 1 mps 527 mmHg 86%
    21:00 +9°C° 0.1 mm 1 mps 527 mmHg 86%
    22:00 +9°C° 0.1 mm 1 mps 528 mmHg 86%
    23:00 +9°C° 0 mm 1 mps 527 mmHg 87%

    Day after tomorrow, 13 December, Thursday

    Time Temperature Precipitation Wind Pressure Humidity
    00:00 +8°C° 0 mm 1 mps 527 mmHg 87%
    01:00 +8°C° 0 mm 1 mps 527 mmHg 88%
    02:00 +8°C° 0 mm 1 mps 526 mmHg 87%
    03:00 +8°C° 0 mm 1 mps 526 mmHg 86%
    04:00 +8°C° 0 mm 1 mps 526 mmHg 85%
    05:00 +9°C° 0 mm 1 mps 527 mmHg 84%
    06:00 +9°C° 0 mm 1 mps 527 mmHg 83%
    07:00 +10°C° 0 mm 1 mps 528 mmHg 81%
    08:00 +11°C° 0.1 mm 1 mps 529 mmHg 77%
    09:00 +12°C° 0.1 mm 1 mps 530 mmHg 72%
    10:00 +14°C° 0.1 mm 2 mps 531 mmHg 68%
    11:00 +14°C° 0.8 mm 1 mps 530 mmHg 69%
    12:00 +14°C° 0.8 mm 1 mps 530 mmHg 70%
    13:00 +14°C° 0.8 mm 1 mps 529 mmHg 71%
    14:00 +13°C° 3 mm 1 mps 529 mmHg 73%
    15:00 +13°C° 3 mm 1 mps 528 mmHg 75%
    16:00 +12°C° 3 mm 1 mps 528 mmHg 77%
    17:00 +11°C° 2.8 mm 1 mps 527 mmHg 81%
    18:00 +10°C° 2.8 mm 1 mps 527 mmHg 86%
    19:00 +8°C° 2.8 mm 0 mps 527 mmHg 90%
    20:00 +8°C° 1.6 mm 0 mps 527 mmHg 89%
    21:00 +8°C° 1.6 mm 0 mps 528 mmHg 88%
    22:00 +8°C° 1.6 mm 0 mps 528 mmHg 87%
    23:00 +8°C° 1.6 mm 0 mps 528 mmHg 86%

    14 December, Friday

    Time Temperature Precipitation Wind Pressure Humidity
    00:00 +9°C° 1.6 mm 1 mps 527 mmHg 86%
    01:00 +9°C° 1.6 mm 1 mps 527 mmHg 86%
    02:00 +9°C° 1.1 mm 1 mps 527 mmHg 85%
    03:00 +9°C° 1.1 mm 1 mps 526 mmHg 85%
    04:00 +9°C° 1.1 mm 1 mps 526 mmHg 85%
    05:00 +9°C° 1.1 mm 1 mps 526 mmHg 85%
    06:00 +8°C° 1.1 mm 1 mps 527 mmHg 85%
    07:00 +8°C° 1.1 mm 1 mps 527 mmHg 85%
    08:00 +9°C° 1 mm 1 mps 528 mmHg 83%
    09:00 +10°C° 1 mm 1 mps 528 mmHg 81%
    10:00 +10°C° 1 mm 1 mps 529 mmHg 79%
    11:00 +11°C° 0.8 mm 1 mps 529 mmHg 78%
    12:00 +11°C° 0.8 mm 1 mps 529 mmHg 78%
    13:00 +12°C° 0.8 mm 1 mps 528 mmHg 77%
    14:00 +11°C° 1 mm 1 mps 528 mmHg 79%
    15:00 +11°C° 1 mm 1 mps 527 mmHg 81%
    16:00 +11°C° 1 mm 1 mps 527 mmHg 83%
    17:00 +10°C° 0.9 mm 1 mps 527 mmHg 85%
    18:00 +9°C° 0.9 mm 0 mps 527 mmHg 88%
    19:00 +8°C° 0.9 mm 0 mps 527 mmHg 90%
    20:00 +8°C° 0.6 mm 0 mps 527 mmHg 90%
    21:00 +8°C° 0.6 mm 0 mps 527 mmHg 89%
    22:00 +9°C° 0.6 mm 1 mps 528 mmHg 88%
    23:00 +8°C° 0.5 mm 1 mps 527 mmHg 87%

    15 December, Saturday

    Time Temperature Precipitation Wind Pressure Humidity
    00:00 +8°C° 0.5 mm 1 mps 527 mmHg 87%
    01:00 +8°C° 0.5 mm 1 mps 527 mmHg 86%
    02:00 +8°C° 0.4 mm 1 mps 526 mmHg 86%
    03:00 +8°C° 0.4 mm 1 mps 526 mmHg 85%
    04:00 +8°C° 0.4 mm 1 mps 526 mmHg 85%
    05:00 +8°C° 0.4 mm 1 mps 526 mmHg 84%
    06:00 +8°C° 0.4 mm 1 mps 527 mmHg 84%
    07:00 +8°C° 0.4 mm 1 mps 527 mmHg 83%
    08:00 +9°C° 0.4 mm 1 mps 528 mmHg 80%
    09:00 +10°C° 0.4 mm 1 mps 529 mmHg 78%
    10:00 +11°C° 0.4 mm 1 mps 530 mmHg 76%
    11:00 +12°C° 0.3 mm 1 mps 530 mmHg 74%
    12:00 +13°C° 0.3 mm 1 mps 529 mmHg 72%
    13:00 +13°C° 0.3 mm 1 mps 529 mmHg 70%
    14:00 +13°C° 0.3 mm 1 mps 529 mmHg 73%
    15:00 +13°C° 0.3 mm 1 mps 528 mmHg 75%
    16:00 +12°C° 0.3 mm 1 mps 527 mmHg 77%
    17:00 +11°C° 0.5 mm 1 mps 527 mmHg 82%
    18:00 +9°C° 0.5 mm 0 mps 527 mmHg 87%
    19:00 +8°C° 0.5 mm 0 mps 527 mmHg 91%
    20:00 +8°C° 0.7 mm 0 mps 527 mmHg 91%
    21:00 +8°C° 0.7 mm 0 mps 528 mmHg 91%
    22:00 +8°C° 0.7 mm 0 mps 528 mmHg 90%
    23:00 +8°C° 0.7 mm 0 mps 528 mmHg 90%

    16 December, Sunday

    Time Temperature Precipitation Wind Pressure Humidity
    00:00 +8°C° 0.7 mm 0 mps 528 mmHg 90%
    01:00 +8°C° 0.7 mm 0 mps 527 mmHg 90%
    02:00 +9°C° 0.7 mm 1 mps 527 mmHg 89%
    03:00 +9°C° 0.7 mm 1 mps 527 mmHg 88%
    04:00 +9°C° 0.7 mm 1 mps 527 mmHg 88%
    05:00 +9°C° 0.2 mm 1 mps 527 mmHg 87%
    06:00 +9°C° 0.2 mm 1 mps 527 mmHg 86%
    07:00 +9°C° 0.2 mm 1 mps 528 mmHg 85%
    08:00 +10°C° 0.1 mm 1 mps 529 mmHg 80%
    09:00 +12°C° 0.1 mm 1 mps 530 mmHg 76%
    10:00 +13°C° 0.1 mm 2 mps 531 mmHg 72%
    11:00 +13°C° 0.5 mm 2 mps 530 mmHg 72%
    12:00 +13°C° 0.5 mm 1 mps 529 mmHg 73%
    13:00 +13°C° 0.5 mm 1 mps 529 mmHg 73%
    14:00 +13°C° 0.7 mm 1 mps 528 mmHg 74%
    15:00 +13°C° 0.7 mm 1 mps 528 mmHg 75%
    16:00 +13°C° 0.7 mm 1 mps 527 mmHg 76%
    17:00 +12°C° 0.6 mm 1 mps 527 mmHg 81%
    18:00 +10°C° 0.6 mm 1 mps 527 mmHg 86%
    19:00 +8°C° 0.6 mm 0 mps 527 mmHg 91%
    20:00 +9°C° 0.5 mm 1 mps 527 mmHg 91%
    21:00 +9°C° 0.5 mm 1 mps 527 mmHg 91%
    22:00 +9°C° 0.5 mm 1 mps 528 mmHg 90%
    23:00 +9°C° 0.2 mm 1 mps 527 mmHg 90%
    Show more